Regional Weather Roundup
Issued by NWS

Home | Current Version | Previous Version | Graphics & Text | Print | Product List | Glossary Off
Versions: 1 2 3 4 5 6 7 8 9 10 11 12 13 14 15 16 17 18 19 20 21 22 23 24 25 26 27 28 29 30 31 32 33 34 35 36 37 38 39 40 41 42 43 44 45 46 47 48 49 50

000
ASUS43 KTOP 210308
RWRKS

WEATHER ROUNDUP FOR KANSAS
NATIONAL WEATHER SERVICE GOODLAND KS
900 PM CST SAT DEC 20 2014

NOTE:  "FAIR" INDICATES FEW OR NO CLOUDS BELOW 12,000 FEET WITH NO
SIGNIFICANT WEATHER AND/OR OBSTRUCTIONS TO VISIBILITY.

KSZ001>006-013>018-027>032-041>047-210400-
NORTHWEST KANSAS

CITY           SKY/WX    TMP DP  RH WIND       PRES   REMARKS
GOODLAND       CLOUDY    33  28  81 S3        29.95F
HAYS           MOCLDY    36  28  75 S6        30.00F
HILL CITY      MOCLDY    40  33  76 W5        29.98S
RUSSELL        MOCLDY    38  37  97 S16       29.99F WCI  29
$$

KSZ061>065-074>080-084>089-210400-
SOUTHWEST KANSAS

CITY           SKY/WX    TMP DP  RH WIND       PRES   REMARKS
DODGE CITY     CLEAR     33  31  92 S9        30.01F FOG
ELKHART          N/A    N/A N/A N/A MISG        N/A
GARDEN CITY    MOCLDY    33  32  96 S13       29.98F WCI  24
GREAT BEND     PTCLDY    37  32  81 S13       30.04F WCI  29
LIBERAL        MOCLDY    37  30  75 SE9       30.02S
PRATT          PTCLDY    37  36  93 S12       30.06F WCI  30
$$

KSZ066>073-081>083-090>101-210400-
SOUTHEAST KANSAS

CITY           SKY/WX    TMP DP  RH WIND       PRES   REMARKS
CHANUTE        CLEAR     36  33  89 S9        30.16S
COFFEYVILLE    MOCLDY    41  35  79 S12       30.18S
HUTCHINSON     CLOUDY    43  37  79 S14       30.08S
MEDICINE LODGE   N/A     38  36  92 SE7       30.08F
NEWTON         CLOUDY    41  34  75 S14       30.10F
PARSONS        CLEAR     36  33  89 S3        30.18S
WICHITA INTL   CLOUDY    43  37  79 S10       30.11S
WICHITA JABRA  CLOUDY    42  37  82 S14       30.10F
WICHITA MCCONL CLOUDY    42  38  83 S14       30.11F
WINFIELD       CLOUDY    42  37  82 S13       30.15S
$$

KSZ007>012-019>026-033>040-048>060-102>105-210400-
NORTHEAST KANSAS

CITY           SKY/WX    TMP DP  RH WIND       PRES   REMARKS
CONCORDIA      MOCLDY    38  36  92 S16       30.01S WCI  29
EMPORIA        PTCLDY    36  33  89 S10       30.11F WCI  28
LAWRENCE       PTCLDY    35  32  88 S9        30.13S
MANHATTAN      MOCLDY    39  36  89 SW7       30.08R
MARYSVILLE     MOCLDY    36  36 100 S7        30.04S
OLATHE IND     PTCLDY    34  32  92 S9        30.14S
OLATHE EXE     PTCLDY    33  32  96 S8        30.13F FOG
SALINA         PTCLDY    40  36  86 S10       30.05F WCI  33
TOPEKA BILLARD PTCLDY    41  36  82 S7        30.11F
TOPEKA FORBES  MOCLDY    40  35  83 S13       30.09F WCI  32
$$


USA.gov is the U.S. government's official web portal to all federal, state and local government web resources and services.